| time (UTC) | temp F | wind direction | speed knots | gust knots | rain 1hr in | rain 24hr in | rain mn in | humidity % | barometer mb |
| 20260506232218 | 74 | 292 | 2.6 | 6.1 | 0.00 | 0.00 | 0.00 | 55 | 1019.0 |
| 20260506231716 | 75 | 339 | 1.7 | 2.6 | 0.00 | 0.00 | 0.00 | 56 | 1019.2 |
| 20260506231214 | 74 | 348 | 4.3 | 6.1 | 0.00 | 0.00 | 0.00 | 55 | 1019.1 |
| 20260506230710 | 75 | 319 | 5.2 | 7.0 | 0.00 | 0.00 | 0.00 | 56 | 1019.3 |
| 20260506230208 | 75 | 313 | 4.3 | 6.1 | 0.00 | 0.00 | 0.00 | 54 | 1019.3 |
| 20260506225704 | 75 | 324 | 3.5 | 5.2 | 0.00 | 0.00 | 0.00 | 54 | 1019.4 |
| 20260506225201 | 73 | 2 | 4.3 | 6.1 | 0.00 | 0.00 | 0.00 | 56 | 1019.4 |
| 20260506224657 | 74 | 303 | 7.0 | 8.7 | 0.00 | 0.00 | 0.00 | 56 | 1019.5 |
| 20260506224154 | 75 | 330 | 5.2 | 7.0 | 0.00 | 0.00 | 0.00 | 57 | 1019.4 |
| 20260506223651 | 75 | 189 | 1.7 | 2.6 | 0.00 | 0.00 | 0.00 | 54 | 1019.3 |
| 20260506223146 | 75 | 348 | 4.3 | 6.1 | 0.00 | 0.00 | 0.00 | 55 | 1019.4 |
| 20260506222644 | 76 | 198 | 0.9 | 1.7 | 0.00 | 0.00 | 0.00 | 56 | 1019.7 |
| 20260506222139 | 76 | 62 | 1.7 | 1.7 | 0.00 | 0.00 | 0.00 | 56 | 1019.4 |
| 20260506221637 | 76 | 55 | 1.7 | 2.6 | 0.00 | 0.00 | 0.00 | 54 | 1019.7 |
| 20260506221135 | 76 | 300 | 0.9 | 1.7 | 0.00 | 0.00 | 0.00 | 54 | 1019.6 |
| 20260506220632 | 77 | 342 | 1.7 | 2.6 | 0.00 | 0.00 | 0.00 | 52 | 1019.7 |
| 20260506220127 | 75 | 287 | 3.5 | 5.2 | 0.00 | 0.00 | 0.00 | 55 | 1019.7 |
| 20260506215624 | 77 | 167 | 0.0 | 0.9 | 0.00 | 0.00 | 0.00 | 52 | 1019.8 |
| 20260506215119 | 77 | 321 | 3.5 | 5.2 | 0.00 | 0.00 | 0.00 | 53 | 1019.8 |
| 20260506214616 | 75 | 81 | 0.9 | 0.9 | 0.00 | 0.00 | 0.00 | 53 | 1019.8 |
| 20260506214114 | 77 | 11 | 2.6 | 2.6 | 0.00 | 0.00 | 0.00 | 50 | 1019.9 |
| 20260506213612 | 76 | 330 | 0.9 | 1.7 | 0.00 | 0.00 | 0.00 | 52 | 1020.2 |
| 20260506213109 | 76 | 327 | 4.3 | 5.2 | 0.00 | 0.00 | 0.00 | 52 | 1020.0 |
| 20260506212606 | 75 | 8 | 0.9 | 0.9 | 0.00 | 0.00 | 0.00 | 53 | 1020.1 |
| 20260506212100 | 75 | 244 | 1.7 | 2.6 | 0.00 | 0.00 | 0.00 | 54 | 1020.1 |
| 20260506211556 | 75 | 347 | 3.5 | 3.5 | 0.00 | 0.00 | 0.00 | 55 | 1020.3 |
| 20260506211053 | 75 | 178 | 0.9 | 0.9 | 0.00 | 0.00 | 0.00 | 54 | 1020.2 |
| 20260506210544 | 76 | 150 | 3.5 | 5.2 | 0.00 | 0.00 | 0.00 | 53 | 1020.5 |
| 20260506210041 | 76 | 284 | 0.9 | 0.9 | 0.00 | 0.00 | 0.00 | 52 | 1020.3 |
| 20260506205538 | 77 | 24 | 3.5 | 3.5 | 0.00 | 0.00 | 0.00 | 51 | 1020.2 |
| 20260506205033 | 75 | 156 | 0.9 | 0.9 | 0.00 | 0.00 | 0.00 | 53 | 1020.4 |
| 20260506204532 | 75 | 145 | 0.0 | 0.9 | 0.00 | 0.00 | 0.00 | 54 | 1020.4 |
| 20260506204028 | 73 | 277 | 0.0 | 0.9 | 0.00 | 0.00 | 0.00 | 56 | 1020.5 |
| 20260506203527 | 74 | 110 | 0.0 | 0.0 | 0.00 | 0.00 | 0.00 | 54 | 1020.6 |
| 20260506203023 | 72 | 318 | 1.7 | 1.7 | 0.00 | 0.00 | 0.00 | 56 | 1020.6 |
| 20260506202520 | 72 | 258 | 1.7 | 2.6 | 0.00 | 0.00 | 0.00 | 55 | 1020.6 |
| 20260506202016 | 73 | 328 | 2.6 | 3.5 | 0.00 | 0.00 | 0.00 | 55 | 1020.8 |
| 20260506201514 | 73 | 156 | 1.7 | 1.7 | 0.00 | 0.00 | 0.00 | 53 | 1020.8 |
| 20260506201010 | 73 | 307 | 2.6 | 2.6 | 0.00 | 0.00 | 0.00 | 55 | 1021.0 |
| 20260506200507 | 73 | 18 | 2.6 | 2.6 | 0.00 | 0.00 | 0.00 | 56 | 1020.9 |
| 20260506200003 | 73 | 337 | 1.7 | 2.6 | 0.00 | 0.00 | 0.00 | 54 | 1021.0 |
| 20260506195500 | 72 | 160 | 0.9 | 0.9 | 0.00 | 0.00 | 0.00 | 55 | 1021.0 |
| 20260506194956 | 71 | 351 | 1.7 | 2.6 | 0.00 | 0.00 | 0.00 | 56 | 1021.0 |
| 20260506194453 | 71 | 179 | 0.0 | 0.0 | 0.00 | 0.00 | 0.00 | 56 | 1020.9 |
| 20260506193945 | 71 | 19 | 3.5 | 3.5 | 0.00 | 0.00 | 0.00 | 56 | 1021.0 |
| 20260506193442 | 71 | 267 | 2.6 | 2.6 | 0.00 | 0.00 | 0.00 | 58 | 1021.1 |
| 20260506192939 | 71 | 162 | 0.9 | 0.9 | 0.00 | 0.00 | 0.00 | 58 | 1021.1 |
| 20260506192436 | 71 | 152 | 0.9 | 0.9 | 0.00 | 0.00 | 0.00 | 58 | 1021.0 |
| 20260506191932 | 70 | 153 | 0.9 | 0.9 | 0.00 | 0.00 | 0.00 | 60 | 1021.2 |
| 20260506191429 | 71 | 80 | 1.7 | 2.6 | 0.00 | 0.00 | 0.00 | 59 | 1021.2 |
| 20260506190925 | 70 | 326 | 1.7 | 1.7 | 0.00 | 0.00 | 0.00 | 58 | 1021.2 |
| 20260506190421 | 69 | 320 | 1.7 | 1.7 | 0.00 | 0.00 | 0.00 | 60 | 1021.1 |
| 20260506185913 | 71 | 310 | 2.6 | 2.6 | 0.00 | 0.00 | 0.00 | 59 | 1021.2 |
| 20260506185410 | 71 | 197 | 0.9 | 0.9 | 0.00 | 0.00 | 0.00 | 59 | 1021.2 |
| 20260506184908 | 70 | 122 | 0.9 | 0.9 | 0.00 | 0.00 | 0.00 | 61 | 1021.4 |
| 20260506184404 | 69 | 17 | 1.7 | 1.7 | 0.00 | 0.00 | 0.00 | 63 | 1021.4 |
| 20260506183902 | 69 | 235 | 1.7 | 2.6 | 0.00 | 0.00 | 0.00 | 61 | 1021.6 |
| 20260506183357 | 69 | 317 | 1.7 | 1.7 | 0.00 | 0.00 | 0.00 | 63 | 1021.4 |
| 20260506182854 | 69 | 299 | 1.7 | 5.2 | 0.00 | 0.00 | 0.00 | 62 | 1021.5 |
| 20260506182351 | 68 | 122 | 0.0 | 0.9 | 0.00 | 0.00 | 0.00 | 63 | 1021.6 |
| 20260506181848 | 67 | 243 | 0.9 | 0.9 | 0.00 | 0.00 | 0.00 | 65 | 1021.3 |
| 20260506181346 | 67 | 291 | 3.5 | 5.2 | 0.00 | 0.00 | 0.00 | 65 | 1021.5 |
| 20260506180843 | 68 | 149 | 0.0 | 0.0 | 0.00 | 0.00 | 0.00 | 63 | 1021.4 |
| 20260506180339 | 66 | 191 | 0.9 | 0.9 | 0.00 | 0.00 | 0.00 | 66 | 1021.4 |
| 20260506175836 | 66 | 347 | 3.5 | 3.5 | 0.00 | 0.00 | 0.00 | 65 | 1021.6 |
| 20260506175332 | 65 | 46 | 0.9 | 0.9 | 0.00 | 0.00 | 0.00 | 67 | 1021.4 |
| 20260506174830 | 65 | 193 | 0.0 | 0.0 | 0.00 | 0.00 | 0.00 | 68 | 1021.7 |
| 20260506174327 | 66 | 221 | 0.9 | 1.7 | 0.00 | 0.00 | 0.00 | 67 | 1021.6 |
| 20260506173825 | 65 | 358 | 0.9 | 0.9 | 0.00 | 0.00 | 0.00 | 67 | 1021.5 |
| 20260506173321 | 64 | 225 | 1.7 | 1.7 | 0.00 | 0.00 | 0.00 | 69 | 1021.4 |
| 20260506172818 | 64 | 201 | 0.0 | 0.9 | 0.00 | 0.00 | 0.00 | 70 | 1021.5 |
| 20260506172315 | 63 | 312 | 0.9 | 0.9 | 0.00 | 0.00 | 0.00 | 71 | 1021.6 |
| 20260506171812 | 63 | 296 | 1.7 | 2.6 | 0.00 | 0.00 | 0.00 | 71 | 1021.6 |
| 20260506171309 | 63 | 187 | 0.0 | 0.0 | 0.00 | 0.00 | 0.00 | 72 | 1021.8 |
| 20260506170807 | 63 | 185 | 1.7 | 2.6 | 0.00 | 0.00 | 0.00 | 72 | 1021.7 |
| 20260506170303 | 62 | 195 | 0.9 | 0.9 | 0.00 | 0.00 | 0.00 | 73 | 1021.6 |
| 20260506165802 | 62 | 190 | 0.9 | 0.9 | 0.00 | 0.00 | 0.00 | 73 | 1021.5 |
| 20260506165259 | 62 | 216 | 0.9 | 0.9 | 0.00 | 0.00 | 0.00 | 73 | 1021.6 |
| 20260506164756 | 62 | 231 | 0.9 | 0.9 | 0.00 | 0.00 | 0.00 | 73 | 1021.6 |
| 20260506164252 | 62 | 234 | 0.0 | 0.9 | 0.00 | 0.00 | 0.00 | 74 | 1021.6 |
| 20260506163749 | 61 | 238 | 0.0 | 0.0 | 0.00 | 0.00 | 0.00 | 74 | 1021.8 |
| 20260506163244 | 61 | 199 | 0.9 | 0.9 | 0.00 | 0.00 | 0.00 | 74 | 1021.7 |
| 20260506162740 | 61 | 246 | 0.9 | 0.9 | 0.00 | 0.00 | 0.00 | 75 | 1021.6 |
| 20260506162238 | 61 | 241 | 1.7 | 2.6 | 0.00 | 0.00 | 0.00 | 75 | 1021.7 |
| 20260506161735 | 61 | 305 | 0.9 | 1.7 | 0.00 | 0.00 | 0.00 | 75 | 1021.6 |
| 20260506161232 | 61 | 331 | 1.7 | 2.6 | 0.00 | 0.00 | 0.00 | 76 | 1021.6 |
| 20260506160730 | 61 | 251 | 0.9 | 1.7 | 0.00 | 0.00 | 0.00 | 76 | 1021.6 |
| 20260506160226 | 61 | 198 | 0.0 | 0.0 | 0.00 | 0.00 | 0.00 | 77 | 1021.6 |
| 20260506155725 | 60 | 191 | 0.0 | 0.0 | 0.00 | 0.00 | 0.00 | 78 | 1021.5 |
| 20260506155221 | 59 | 191 | 0.0 | 0.9 | 0.00 | 0.00 | 0.00 | 78 | 1021.6 |
| 20260506153329 | 59 | 189 | 0.0 | 0.0 | 0.00 | 0.00 | 0.00 | 80 | 1021.6 |
| 20260506152826 | 59 | 193 | 0.0 | 0.9 | 0.00 | 0.00 | 0.00 | 80 | 1021.6 |
| 20260506152323 | 58 | 245 | 0.0 | 0.0 | 0.00 | 0.00 | 0.00 | 81 | 1021.5 |
| 20260506151822 | 58 | 199 | 0.0 | 0.0 | 0.00 | 0.00 | 0.00 | 81 | 1021.6 |
| 20260506151318 | 58 | 206 | 0.0 | 0.0 | 0.00 | 0.00 | 0.00 | 81 | 1021.5 |
| 20260506150815 | 58 | 199 | 0.0 | 0.0 | 0.00 | 0.00 | 0.00 | 82 | 1021.6 |
| 20260506150312 | 58 | 172 | 0.0 | 0.0 | 0.00 | 0.00 | 0.00 | 82 | 1021.8 |
| 20260506145809 | 57 | 201 | 0.0 | 0.0 | 0.00 | 0.00 | 0.00 | 82 | 1021.6 |
| 20260506145306 | 57 | 199 | 0.0 | 0.0 | 0.00 | 0.00 | 0.00 | 83 | 1021.5 |
| 20260506144803 | 57 | 209 | 0.0 | 0.0 | 0.00 | 0.00 | 0.00 | 83 | 1021.6 |
| 20260506144259 | 57 | 170 | 0.0 | 0.0 | 0.00 | 0.00 | 0.00 | 83 | 1021.5 |
| 20260506143758 | 57 | 189 | 0.0 | 0.0 | 0.00 | 0.00 | 0.00 | 84 | 1021.5 |
| 20260506143254 | 57 | 201 | 0.0 | 0.0 | 0.00 | 0.00 | 0.00 | 84 | 1021.5 |
| 20260506142753 | 57 | 185 | 0.0 | 0.0 | 0.00 | 0.00 | 0.00 | 84 | 1021.5 |
| 20260506142250 | 57 | 207 | 0.0 | 0.0 | 0.00 | 0.00 | 0.00 | 84 | 1021.4 |
| 20260506141749 | 57 | 192 | 0.0 | 0.0 | 0.00 | 0.00 | 0.00 | 84 | 1021.4 |
| 20260506141246 | 57 | 212 | 0.0 | 0.0 | 0.00 | 0.00 | 0.00 | 84 | 1021.3 |
| 20260506140744 | 57 | 238 | 0.0 | 0.0 | 0.00 | 0.00 | 0.00 | 84 | 1021.2 |
| 20260506140241 | 57 | 257 | 0.0 | 0.9 | 0.00 | 0.00 | 0.00 | 84 | 1021.3 |
| 20260506135738 | 57 | 208 | 0.0 | 0.0 | 0.00 | 0.00 | 0.00 | 85 | 1021.2 |
| 20260506135234 | 56 | 190 | 0.0 | 0.0 | 0.00 | 0.00 | 0.00 | 85 | 1021.1 |
| 20260506134731 | 56 | 213 | 0.9 | 0.9 | 0.00 | 0.00 | 0.00 | 85 | 1021.1 |
| 20260506134227 | 56 | 228 | 0.9 | 1.7 | 0.00 | 0.00 | 0.00 | 85 | 1020.8 |
| 20260506133724 | 56 | 206 | 0.9 | 0.9 | 0.00 | 0.00 | 0.00 | 85 | 1020.8 |
| 20260506133221 | 56 | 200 | 0.0 | 0.0 | 0.00 | 0.00 | 0.00 | 85 | 1020.7 |
| 20260506132718 | 56 | 196 | 0.0 | 0.0 | 0.00 | 0.00 | 0.00 | 85 | 1020.8 |
| 20260506132215 | 56 | 216 | 0.0 | 0.0 | 0.00 | 0.00 | 0.00 | 85 | 1020.5 |
| 20260506131713 | 56 | 201 | 0.0 | 0.0 | 0.00 | 0.00 | 0.00 | 85 | 1020.7 |
| 20260506131209 | 56 | 220 | 0.9 | 0.9 | 0.00 | 0.00 | 0.00 | 85 | 1020.6 |
| 20260506130706 | 56 | 196 | 0.0 | 0.0 | 0.00 | 0.00 | 0.00 | 85 | 1020.5 |
| 20260506130203 | 56 | 194 | 0.0 | 0.0 | 0.00 | 0.00 | 0.00 | 85 | 1020.5 |
| 20260506125701 | 56 | 254 | 0.0 | 0.0 | 0.00 | 0.00 | 0.00 | 85 | 1020.6 |
| 20260506125158 | 56 | 198 | 0.0 | 0.0 | 0.00 | 0.00 | 0.00 | 85 | 1020.4 |
| 20260506124655 | 56 | 235 | 0.0 | 0.0 | 0.00 | 0.00 | 0.00 | 85 | 1020.6 |
| 20260506124154 | 56 | 34 | 0.0 | 0.0 | 0.00 | 0.00 | 0.00 | 85 | 1020.5 |
| 20260506123651 | 56 | 34 | 0.0 | 0.0 | 0.00 | 0.00 | 0.00 | 85 | 1020.4 |
| 20260506123150 | 56 | 34 | 0.0 | 0.0 | 0.00 | 0.00 | 0.00 | 85 | 1020.3 |
| 20260506122646 | 56 | 268 | 0.9 | 0.9 | 0.00 | 0.00 | 0.00 | 85 | 1020.5 |
| 20260506122144 | 56 | 305 | 0.0 | 0.0 | 0.00 | 0.00 | 0.00 | 85 | 1020.3 |
| 20260506121641 | 56 | 191 | 0.0 | 0.0 | 0.00 | 0.00 | 0.00 | 85 | 1020.4 |
| 20260506121137 | 56 | 176 | 0.0 | 0.0 | 0.00 | 0.00 | 0.00 | 85 | 1020.4 |
| 20260506120636 | 56 | 210 | 0.0 | 0.0 | 0.00 | 0.00 | 0.00 | 85 | 1020.3 |
| 20260506120132 | 56 | 200 | 0.0 | 0.0 | 0.00 | 0.00 | 0.00 | 85 | 1020.2 |
| 20260506115631 | 56 | 187 | 0.0 | 0.0 | 0.00 | 0.00 | 0.00 | 85 | 1020.3 |
| 20260506115129 | 56 | 193 | 0.0 | 0.0 | 0.00 | 0.00 | 0.00 | 85 | 1020.3 |
| 20260506114626 | 56 | 201 | 0.0 | 0.0 | 0.00 | 0.00 | 0.00 | 85 | 1020.1 |
| 20260506114124 | 56 | 197 | 0.0 | 0.0 | 0.00 | 0.00 | 0.00 | 86 | 1020.2 |
| 20260506113622 | 56 | 192 | 0.0 | 0.0 | 0.00 | 0.00 | 0.00 | 86 | 1020.2 |
| 20260506113119 | 56 | 187 | 0.0 | 0.0 | 0.00 | 0.00 | 0.00 | 86 | 1020.1 |
| 20260506112615 | 56 | 180 | 0.0 | 0.0 | 0.00 | 0.00 | 0.00 | 86 | 1019.9 |
| 20260506112113 | 56 | 193 | 0.0 | 0.0 | 0.00 | 0.00 | 0.00 | 86 | 1020.1 |
| 20260506111610 | 56 | 187 | 0.0 | 0.0 | 0.00 | 0.00 | 0.00 | 86 | 1020.2 |
| 20260506111108 | 56 | 186 | 0.0 | 0.0 | 0.00 | 0.00 | 0.00 | 86 | 1020.2 |
| 20260506110605 | 56 | 186 | 0.0 | 0.0 | 0.00 | 0.00 | 0.00 | 86 | 1020.0 |
| 20260506105558 | 56 | 201 | 0.0 | 0.0 | 0.00 | 0.00 | 0.00 | 86 | 1019.9 |
| 20260506105055 | 56 | 188 | 0.0 | 0.0 | 0.00 | 0.00 | 0.00 | 85 | 1020.1 |
| 20260506104554 | 56 | 189 | 0.0 | 0.0 | 0.00 | 0.00 | 0.00 | 85 | 1019.9 |
| 20260506104051 | 56 | 199 | 0.0 | 0.0 | 0.00 | 0.00 | 0.00 | 84 | 1019.8 |
| 20260506103548 | 57 | 198 | 0.0 | 0.0 | 0.00 | 0.00 | 0.00 | 84 | 1019.8 |
| 20260506103045 | 57 | 302 | 0.0 | 0.0 | 0.00 | 0.00 | 0.00 | 84 | 1019.9 |
| 20260506102543 | 57 | 302 | 0.0 | 0.0 | 0.00 | 0.00 | 0.00 | 84 | 1019.9 |
| 20260506102040 | 57 | 188 | 0.0 | 0.0 | 0.00 | 0.00 | 0.00 | 84 | 1019.8 |
| 20260506101537 | 57 | 203 | 0.0 | 0.0 | 0.00 | 0.00 | 0.00 | 84 | 1019.8 |
| 20260506101034 | 57 | 197 | 0.0 | 0.0 | 0.00 | 0.00 | 0.00 | 84 | 1019.9 |
| 20260506100532 | 57 | 205 | 0.0 | 0.0 | 0.00 | 0.00 | 0.00 | 84 | 1020.0 |
| 20260506100030 | 57 | 186 | 0.0 | 0.0 | 0.00 | 0.00 | 0.00 | 84 | 1019.6 |
| 20260506095529 | 57 | 331 | 0.9 | 0.9 | 0.00 | 0.00 | 0.00 | 84 | 1019.9 |
| 20260506095024 | 57 | 191 | 0.0 | 0.0 | 0.00 | 0.00 | 0.00 | 84 | 1019.7 |
| 20260506094522 | 57 | 187 | 0.0 | 0.0 | 0.00 | 0.00 | 0.00 | 84 | 1019.7 |
| 20260506094020 | 57 | 198 | 0.0 | 0.0 | 0.00 | 0.00 | 0.00 | 83 | 1019.8 |
| 20260506093518 | 57 | 204 | 0.0 | 0.9 | 0.00 | 0.00 | 0.00 | 83 | 1019.9 |
| 20260506093015 | 57 | 184 | 0.0 | 0.0 | 0.00 | 0.00 | 0.00 | 83 | 1019.9 |
| 20260506092513 | 57 | 190 | 0.0 | 0.0 | 0.00 | 0.00 | 0.00 | 83 | 1020.0 |
| 20260506092009 | 57 | 304 | 0.9 | 1.7 | 0.00 | 0.00 | 0.00 | 83 | 1019.9 |
| 20260506091508 | 57 | 311 | 0.0 | 0.0 | 0.00 | 0.00 | 0.00 | 83 | 1020.0 |
| 20260506091004 | 57 | 312 | 0.0 | 0.0 | 0.00 | 0.00 | 0.00 | 83 | 1019.8 |
| 20260506090503 | 57 | 194 | 0.0 | 0.0 | 0.00 | 0.00 | 0.00 | 83 | 1019.8 |
| 20260506085958 | 57 | 171 | 0.0 | 0.0 | 0.00 | 0.00 | 0.00 | 83 | 1019.9 |
| 20260506085455 | 57 | 173 | 0.0 | 0.0 | 0.00 | 0.00 | 0.00 | 83 | 1019.7 |
| 20260506084952 | 57 | 250 | 1.7 | 2.6 | 0.00 | 0.00 | 0.00 | 83 | 1019.8 |
| 20260506084449 | 57 | 216 | 0.0 | 0.9 | 0.00 | 0.00 | 0.00 | 83 | 1019.8 |
| 20260506083945 | 57 | 319 | 0.9 | 0.9 | 0.00 | 0.00 | 0.00 | 82 | 1019.9 |
| 20260506083443 | 57 | 337 | 0.0 | 0.0 | 0.00 | 0.00 | 0.00 | 82 | 1020.0 |
| 20260506082940 | 57 | 250 | 0.9 | 0.9 | 0.00 | 0.00 | 0.00 | 82 | 1019.9 |
| 20260506082437 | 57 | 271 | 0.9 | 0.9 | 0.00 | 0.00 | 0.00 | 82 | 1020.0 |
| 20260506081932 | 57 | 249 | 0.0 | 0.9 | 0.00 | 0.00 | 0.00 | 82 | 1019.9 |
| 20260506081431 | 57 | 290 | 0.0 | 0.9 | 0.00 | 0.00 | 0.00 | 82 | 1020.0 |
| 20260506080928 | 57 | 273 | 0.9 | 1.7 | 0.00 | 0.00 | 0.00 | 82 | 1019.9 |
| 20260506080425 | 57 | 278 | 0.0 | 0.0 | 0.00 | 0.00 | 0.00 | 81 | 1020.0 |
| 20260506073409 | 58 | 217 | 0.0 | 0.9 | 0.00 | 0.00 | 0.00 | 82 | 1019.4 |
| 20260506072906 | 58 | 316 | 0.9 | 1.7 | 0.00 | 0.00 | 0.00 | 82 | 1019.5 |
| 20260506072403 | 58 | 298 | 1.7 | 1.7 | 0.00 | 0.00 | 0.00 | 81 | 1019.6 |
| 20260506071900 | 58 | 282 | 0.0 | 0.0 | 0.00 | 0.00 | 0.00 | 81 | 1019.6 |
| 20260506071359 | 58 | 312 | 1.7 | 1.7 | 0.00 | 0.00 | 0.00 | 81 | 1019.5 |
| 20260506070855 | 58 | 320 | 2.6 | 2.6 | 0.00 | 0.00 | 0.00 | 81 | 1019.6 |
| 20260506070352 | 58 | 252 | 1.7 | 1.7 | 0.00 | 0.00 | 0.00 | 81 | 1019.4 |
| 20260506062329 | 58 | 313 | 3.5 | 5.2 | 0.00 | 0.00 | 0.00 | 80 | 1019.2 |
| 20260506061825 | 58 | 336 | 1.7 | 2.6 | 0.00 | 0.00 | 0.00 | 80 | 1019.3 |
| 20260506061322 | 58 | 317 | 2.6 | 3.5 | 0.00 | 0.00 | 0.00 | 79 | 1019.1 |
| 20260506060820 | 58 | 231 | 0.9 | 0.9 | 0.00 | 0.00 | 0.00 | 79 | 1019.0 |
| 20260506060318 | 58 | 108 | 0.9 | 0.9 | 0.00 | 0.00 | 0.00 | 79 | 1019.1 |
| 20260506051249 | 59 | 340 | 1.7 | 1.7 | 0.00 | 0.00 | 0.00 | 76 | 1018.8 |
| 20260506050747 | 59 | 301 | 1.7 | 2.6 | 0.00 | 0.00 | 0.00 | 76 | 1018.9 |
| 20260506050244 | 59 | 213 | 0.9 | 0.9 | 0.00 | 0.00 | 0.00 | 76 | 1018.5 |
| 20260506044735 | 59 | 310 | 1.7 | 2.6 | 0.00 | 0.00 | 0.00 | 76 | 1018.6 |
| 20260506044232 | 59 | 242 | 0.0 | 0.0 | 0.00 | 0.00 | 0.00 | 76 | 1018.6 |
| 20260506043730 | 59 | 337 | 0.9 | 1.7 | 0.00 | 0.00 | 0.00 | 76 | 1018.5 |
| 20260506043227 | 59 | 326 | 1.7 | 1.7 | 0.00 | 0.00 | 0.00 | 76 | 1018.4 |
| 20260506042726 | 59 | 203 | 0.0 | 0.9 | 0.00 | 0.00 | 0.00 | 75 | 1018.4 |
| 20260506042224 | 59 | 188 | 0.9 | 0.9 | 0.00 | 0.00 | 0.00 | 75 | 1018.4 |
| 20260506041722 | 59 | 238 | 0.0 | 0.0 | 0.00 | 0.00 | 0.00 | 75 | 1018.1 |
| 20260506041219 | 59 | 228 | 0.0 | 0.9 | 0.00 | 0.00 | 0.00 | 74 | 1018.2 |
| 20260506040716 | 59 | 209 | 0.9 | 0.9 | 0.00 | 0.00 | 0.00 | 74 | 1018.1 |
| 20260506040213 | 59 | 186 | 0.0 | 0.0 | 0.00 | 0.00 | 0.00 | 73 | 1018.1 |
| 20260506035710 | 60 | 189 | 0.0 | 0.0 | 0.00 | 0.00 | 0.00 | 73 | 1018.0 |
| 20260506035207 | 60 | 201 | 0.0 | 0.0 | 0.00 | 0.00 | 0.00 | 73 | 1017.9 |
| 20260506034703 | 60 | 188 | 0.0 | 0.0 | 0.00 | 0.00 | 0.00 | 73 | 1017.8 |
| 20260506034201 | 60 | 210 | 0.0 | 0.9 | 0.00 | 0.00 | 0.00 | 72 | 1017.8 |
| 20260506033658 | 60 | 208 | 0.0 | 0.0 | 0.00 | 0.00 | 0.00 | 72 | 1017.7 |
| 20260506033155 | 60 | 227 | 0.0 | 0.0 | 0.00 | 0.00 | 0.00 | 72 | 1017.6 |
| 20260506032652 | 60 | 307 | 1.7 | 1.7 | 0.00 | 0.00 | 0.00 | 72 | 1017.5 |
| 20260506032149 | 60 | 224 | 0.0 | 0.9 | 0.00 | 0.00 | 0.00 | 72 | 1017.5 |
| 20260506031645 | 60 | 209 | 0.9 | 0.9 | 0.00 | 0.00 | 0.00 | 72 | 1017.5 |
| 20260506031142 | 60 | 197 | 0.0 | 0.0 | 0.00 | 0.00 | 0.00 | 73 | 1017.5 |
| 20260506030641 | 60 | 249 | 0.0 | 0.9 | 0.00 | 0.00 | 0.00 | 73 | 1017.3 |
| 20260506030138 | 60 | 253 | 0.9 | 0.9 | 0.00 | 0.00 | 0.00 | 73 | 1017.3 |
| 20260506025635 | 60 | 309 | 0.0 | 0.9 | 0.00 | 0.00 | 0.00 | 73 | 1017.2 |
| 20260506025131 | 60 | 326 | 1.7 | 1.7 | 0.00 | 0.00 | 0.00 | 73 | 1017.3 |
| 20260506024629 | 60 | 208 | 0.9 | 0.9 | 0.00 | 0.00 | 0.00 | 73 | 1017.1 |
| 20260506024124 | 60 | 210 | 0.9 | 0.9 | 0.00 | 0.00 | 0.00 | 73 | 1017.1 |
| 20260506023621 | 60 | 219 | 0.0 | 0.9 | 0.00 | 0.00 | 0.00 | 73 | 1017.1 |
| 20260506023118 | 60 | 243 | 0.9 | 0.9 | 0.00 | 0.00 | 0.00 | 73 | 1017.0 |
| 20260506022616 | 60 | 223 | 0.9 | 0.9 | 0.00 | 0.00 | 0.00 | 73 | 1017.1 |
| 20260506022113 | 60 | 268 | 0.9 | 1.7 | 0.00 | 0.00 | 0.00 | 73 | 1017.1 |
| 20260506021611 | 60 | 217 | 0.0 | 0.9 | 0.00 | 0.00 | 0.00 | 72 | 1016.8 |
| 20260506021108 | 61 | 190 | 0.0 | 0.0 | 0.00 | 0.00 | 0.00 | 72 | 1016.9 |
| 20260506020605 | 60 | 189 | 0.0 | 0.9 | 0.00 | 0.00 | 0.00 | 72 | 1017.0 |
| 20260506015600 | 60 | 258 | 0.9 | 0.9 | 0.00 | 0.00 | 0.00 | 72 | 1017.1 |
| 20260506015056 | 61 | 264 | 0.9 | 1.7 | 0.00 | 0.00 | 0.00 | 72 | 1017.0 |
| 20260506014554 | 61 | 228 | 0.0 | 0.0 | 0.00 | 0.00 | 0.00 | 72 | 1017.0 |
| 20260506014049 | 61 | 200 | 0.9 | 0.9 | 0.00 | 0.00 | 0.00 | 72 | 1017.0 |
| 20260506013548 | 61 | 266 | 0.9 | 0.9 | 0.00 | 0.00 | 0.00 | 72 | 1017.1 |
| 20260506013044 | 61 | 211 | 0.9 | 0.9 | 0.00 | 0.00 | 0.00 | 72 | 1017.0 |
| 20260506012540 | 61 | 307 | 0.9 | 1.7 | 0.00 | 0.00 | 0.00 | 71 | 1016.9 |
| 20260506012037 | 61 | 193 | 0.0 | 0.9 | 0.00 | 0.00 | 0.00 | 72 | 1016.8 |
| 20260506011535 | 61 | 175 | 0.0 | 0.9 | 0.00 | 0.00 | 0.00 | 71 | 1016.9 |
| 20260506011031 | 61 | 308 | 0.9 | 1.7 | 0.00 | 0.00 | 0.00 | 71 | 1016.9 |
| 20260506010530 | 61 | 207 | 0.0 | 0.0 | 0.00 | 0.00 | 0.00 | 72 | 1016.8 |
| 20260506010026 | 61 | 288 | 0.9 | 0.9 | 0.00 | 0.00 | 0.00 | 71 | 1016.8 |
| 20260506005523 | 62 | 193 | 0.9 | 0.9 | 0.00 | 0.00 | 0.00 | 72 | 1016.9 |
| 20260506005019 | 62 | 210 | 1.7 | 1.7 | 0.00 | 0.00 | 0.00 | 72 | 1016.8 |
| 20260506004517 | 61 | 208 | 0.0 | 0.0 | 0.00 | 0.00 | 0.00 | 72 | 1016.9 |
| 20260506004013 | 62 | 320 | 1.7 | 2.6 | 0.00 | 0.00 | 0.00 | 72 | 1016.7 |
| 20260506003510 | 62 | 355 | 3.5 | 3.5 | 0.00 | 0.00 | 0.00 | 71 | 1016.8 |
| 20260506003005 | 62 | 272 | 0.9 | 0.9 | 0.00 | 0.00 | 0.00 | 71 | 1016.4 |
| 20260506002502 | 62 | 214 | 0.9 | 0.9 | 0.00 | 0.00 | 0.00 | 71 | 1016.7 |
| 20260506001957 | 63 | 239 | 0.9 | 1.7 | 0.00 | 0.00 | 0.00 | 69 | 1016.4 |
| 20260506001454 | 63 | 188 | 0.0 | 0.0 | 0.00 | 0.00 | 0.00 | 69 | 1016.7 |
| 20260506000952 | 64 | 169 | 0.0 | 0.0 | 0.00 | 0.00 | 0.00 | 69 | 1016.5 |
| 20260506000449 | 63 | 176 | 0.0 | 0.0 | 0.00 | 0.00 | 0.00 | 68 | 1016.3 |
| 20260505235946 | 64 | 177 | 0.0 | 0.0 | 0.00 | 0.00 | 0.00 | 67 | 1016.5 |
| 20260505235444 | 63 | 180 | 0.0 | 0.0 | 0.00 | 0.00 | 0.00 | 66 | 1016.5 |
| 20260505234940 | 64 | 187 | 0.0 | 0.9 | 0.00 | 0.00 | 0.00 | 66 | 1016.3 |
| 20260505234438 | 64 | 185 | 0.0 | 0.0 | 0.00 | 0.00 | 0.00 | 66 | 1016.3 |
| 20260505233934 | 64 | 205 | 0.0 | 0.0 | 0.00 | 0.00 | 0.00 | 65 | 1016.5 |
| 20260505233432 | 64 | 206 | 0.0 | 0.0 | 0.00 | 0.00 | 0.00 | 65 | 1016.5 |
| 20260505232930 | 64 | 170 | 0.0 | 0.0 | 0.00 | 0.00 | 0.00 | 66 | 1016.6 |